Wind_Speed
3 3 4 5 5 5 5 5 5 6 6 7 7 7 8 8 8 8 8 8 8 8 8 9 9 9 10 10 10 11 11 11 12 11 10 10 9 9 9 9 9 8 8
4 4 4 5 5 5 6 6 6 6 6 7 7 7 7 8 8 8 8 8 8 8 9 9 10 10 10 11 12 12 11 12 12 12 12 11 10 10 10 10 9 9 9
5 5 5 5 5 6 6 6 6 6 6 7 8 8 8 8 8 8 9 9 8 8 9 9 10 10 10 11 11 11 11 11 12 12 12 12 11 11 11 11 11 10 11
5 6 6 5 5 5 6 6 7 7 7 7 8 8 8 8 8 9 9 9 9 9 9 9 9 10 10 10 10 11 11 11 11 12 12 13 12 12 12 12 12 12 12
6 6 5 5 5 5 5 6 6 6 7 7 7 8 8 7 8 8 9 9 9 9 9 9 10 10 10 10 10 11 12 12 12 12 13 13 13 12 12 12 12 13 13
7 6 6 5 5 5 6 6 6 7 7 7 7 7 7 7 8 8 8 8 8 9 10 10 10 10 11 11 11 11 12 13 13 13 13 13 14 14 13 13 13 13 13
6 6 7 6 5 4 5 6 6 6 6 6 6 7 7 8 8 8 8 8 8 9 9 10 10 10 11 11 11 11 12 12 13 13 13 13 14 14 14 14 13 13 13
6 6 6 7 6 5 4 5 5 4 4 5 5 6 6 6 7 6 7 8 8 8 8 8 9 9 10 10 11 11 12 11 12 13 14 14 14 14 14 14 13 13 14
6 6 6 6 5 5 4 5 5 5 4 3 4 4 5 5 6 7 7 7 7 8 8 8 9 9 9 10 10 10 11 11 11 11 13 13 14 14 14 14 15 15 15
6 6 6 5 5 5 5 5 5 5 4 4 4 4 5 5 6 7 7 7 7 8 8 9 9 9 9 10 11 12 12 11 11 12 12 13 13 14 14 14 15 15 15
5 5 6 5 5 5 5 4 5 4 4 5 5 5 6 6 5 6 7 7 7 7 8 8 8 9 10 10 11 11 12 11 11 11 12 12 13 13 14 14 14 15 14
5 5 6 5 5 5 5 5 5 5 5 5 6 6 6 6 6 5 6 7 7 7 8 8 9 9 10 10 11 11 11 11 11 12 12 12 12 13 13 14 14 14 14
5 5 5 6 5 5 5 5 5 5 5 5 6 6 6 6 6 6 6 6 6 6 7 7 8 8 9 10 10 10 11 11 11 11 12 12 12 13 13 14 13 13 14
5 5 6 6 5 5 5 5 5 5 5 6 6 6 6 6 5 6 6 6 6 6 7 7 7 7 8 8 9 10 10 11 11 11 12 12 11 12 13 13 13 13 13
5 6 6 6 6 5 5 5 5 6 6 5 5 6 6 6 6 6 6 7 7 7 7 7 8 8 8 8 9 9 10 10 11 11 12 12 12 13 13 13 13 13 13
6 6 6 6 6 6 6 6 6 6 6 5 5 6 6 6 6 6 6 7 7 7 7 8 9 8 8 8 9 10 10 11 11 11 11 12 12 13 13 13 13 13 14
6 6 6 6 6 6 6 6 6 6 6 6 6 6 6 6 6 6 6 7 7 7 8 8 9 9 9 9 9 10 11 11 11 11 11 11 12 12 13 13 14 13 14
6 6 6 6 6 7 6 6 6 6 6 6 7 6 6 6 6 6 7 7 8 8 9 9 9 10 10 10 10 10 10 11 11 11 11 12 12 12 13 13 13 13 13
6 7 7 7 7 7 6 6 6 6 7 7 7 7 7 7 7 7 7 8 8 8 9 10 10 10 10 10 10 10 11 11 11 11 12 12 12 12 12 12 13 12 12
7 7 7 7 7 7 7 7 7 7 7 7 7 7 7 7 7 8 8 8 8 9 9 10 10 10 10 10 10 11 11 11 11 11 12 12 12 12 12 12 12 11 12
7 7 7 7 7 8 8 7 8 8 7 7 8 7 7 7 7 8 8 9 9 9 9 9 9 9 9 9 10 10 10 10 10 10 10 10 11 11 11 11 11 12 12
8 8 8 8 8 8 8 8 9 8 8 8 8 8 8 9 9 8 9 9 9 8 8 9 9 9 9 9 9 9 8 8 8 9 9 10 10 10 11 11 11 12 11
8 9 9 9 9 9 10 9 9 9 8 9 9 9 9 9 9 9 10 10 10 9 9 9 9 9 9 8 8 8 8 8 7 8 9 10 10 10 10 11 12 11 11
9 9 9 10 10 10 10 10 10 10 10 10 10 10 10 10 10 10 9 10 10 10 9 9 8 8 8 8 8 8 8 8 8 8 8 9 10 10 10 11 11 11 11
10 10 10 11 10 10 11 11 11 11 11 11 12 11 11 10 10 10 10 10 10 10 10 9 8 8 8 8 8 8 8 8 8 8 8 8 10 10 10 10 11 11 11
11 11 11 11 12 12 12 13 13 13 13 13 12 12 13 12 11 11 11 11 11 11 10 9 8 8 8 8 8 8 8 8 8 8 8 8 9 9 10 9 10 10 11
Wind_Direction
318 309 304 307 299 292 295 295 281 275 273 268 267 262 256 253 253 253 253 255 254 254 253 253 252 250 250 248 247 250 249 243 236 235 236 235 235 234 230 227 228 230 228
324 315 311 314 305 297 295 289 286 281 277 274 271 265 258 251 252 252 251 253 255 253 255 255 252 252 250 249 251 250 248 244 238 237 238 238 238 238 236 234 235 234 233
324 314 310 311 308 301 297 289 282 278 279 277 272 263 258 252 251 250 251 253 254 253 258 257 255 254 252 252 249 248 245 241 237 238 239 239 240 242 241 241 239 238 237
321 319 315 311 309 304 297 291 281 277 275 273 271 268 263 254 253 252 252 254 255 255 254 255 257 256 254 252 248 245 238 235 235 238 241 241 243 244 241 243 244 243 242
322 325 320 314 307 299 293 290 282 275 272 274 272 268 263 257 256 256 257 258 257 258 257 258 258 258 256 255 252 247 238 235 237 239 241 242 244 246 242 243 245 245 246
328 328 330 329 319 311 301 294 287 280 272 270 271 268 263 259 257 255 260 262 263 264 263 261 263 261 259 257 253 251 242 240 242 242 242 243 245 245 245 245 246 248 250
338 336 336 338 327 317 313 302 291 278 270 263 264 267 266 266 264 259 261 263 262 263 264 265 270 264 258 258 256 253 250 247 250 246 246 247 247 249 249 249 249 249 250
342 340 338 335 330 321 319 321 303 276 265 262 262 264 267 262 263 262 264 265 267 269 268 268 270 270 262 260 259 256 252 253 254 250 249 249 250 251 250 249 250 249 250
340 338 340 338 335 335 326 320 315 293 282 274 272 272 273 266 263 262 265 270 270 271 269 269 272 273 267 263 261 259 256 257 260 255 252 252 253 253 252 249 249 250 252
344 342 343 343 343 340 334 327 325 314 303 297 299 286 286 284 282 279 276 274 273 270 269 273 276 274 267 263 263 262 258 256 260 258 257 255 253 252 250 249 249 250 251
347 345 346 347 350 348 337 325 325 324 314 313 315 306 294 291 293 287 278 273 271 269 270 272 273 273 270 266 265 262 258 257 258 258 258 254 251 251 251 251 252 253 253
352 351 349 351 351 349 343 338 332 329 321 318 318 315 304 292 285 283 279 277 276 274 275 275 271 272 272 271 269 264 262 263 262 259 256 252 252 253 255 255 255 256 255
354 355 355 353 353 352 347 343 338 333 328 325 325 321 313 300 287 281 277 274 277 277 278 275 272 273 275 274 270 265 264 263 263 258 254 254 255 255 256 256 255 256 256
351 354 353 350 351 352 347 340 337 332 330 328 326 321 313 307 300 286 281 281 280 282 281 276 276 277 281 276 274 270 267 264 264 260 255 254 254 255 256 256 255 254 256
349 349 346 348 352 350 346 340 332 325 325 326 326 329 323 314 308 297 288 286 287 286 284 280 278 279 282 280 278 274 269 265 264 262 260 257 256 256 256 257 257 257 258
347 346 345 346 350 347 345 340 333 325 321 323 325 326 325 323 317 305 298 293 289 288 286 284 279 279 284 285 281 274 272 268 264 263 262 259 259 258 257 257 258 259 259
346 343 343 342 343 343 343 339 331 327 324 324 325 324 322 321 317 311 301 297 293 291 288 286 285 282 284 283 280 275 275 273 269 266 262 261 259 259 257 255 255 258 260
341 338 335 337 338 337 338 336 332 328 325 324 324 321 319 317 315 314 306 301 300 296 292 291 291 289 285 280 276 273 272 274 272 268 264 263 260 256 256 256 255 258 262
335 336 334 333 334 335 333 331 327 323 321 319 320 318 317 316 318 316 309 301 298 295 293 296 296 294 289 282 277 274 273 273 270 267 264 264 262 257 255 257 258 259 262
333 333 331 329 329 329 328 328 324 321 318 315 315 317 317 317 319 317 310 307 304 299 296 298 297 295 292 285 278 275 274 275 272 267 264 263 263 259 257 257 258 258 259
327 328 328 326 325 325 324 323 321 318 317 317 316 314 314 314 314 313 311 308 305 300 298 297 295 293 289 284 279 279 278 278 272 268 263 262 260 261 259 257 257 258 260
321 320 322 322 319 320 318 318 318 316 314 315 317 313 310 309 309 310 311 309 306 299 297 299 295 294 291 286 281 279 279 279 274 269 266 262 257 255 256 258 258 260 261
317 316 316 314 313 314 313 313 313 311 311 311 310 311 308 305 307 310 308 307 307 304 301 301 296 294 292 288 283 283 281 275 271 268 267 263 258 254 256 261 262 261 262
312 312 311 310 309 308 309 308 308 306 305 306 307 307 307 303 303 304 305 306 306 306 306 304 302 297 292 289 284 282 282 279 275 271 269 263 263 259 261 263 262 259 257
306 310 310 307 305 304 303 304 304 302 302 304 304 305 306 305 301 300 300 301 303 302 301 301 299 295 290 289 288 286 285 281 280 278 275 270 267 263 262 261 259 258 257
301 302 305 303 303 305 304 305 305 301 300 300 301 302 304 303 301 296 296 297 300 301 298 294 294 293 287 286 289 289 287 284 281 282 281 281 274 266 264 263 262 261 262
Height
5871 5871 5870 5870 5869 5869 5869 5868 5868 5868 5868 5868 5868 5868 5868 5868 5869 5869 5869 5869 5869 5869 5869 5870 5870 5870 5870 5870 5870 5869 5869 5869 5870 5871 5872 5873 5873 5874 5874 5875 5875 5876 5876
5870 5870 5869 5869 5868 5868 5868 5867 5867 5867 5867 5866 5866 5866 5867 5867 5867 5867 5868 5868 5868 5868 5868 5868 5868 5868 5868 5868 5868 5867 5866 5866 5868 5870 5871 5871 5872 5872 5873 5873 5874 5874 5875
5870 5869 5868 5868 5867 5867 5866 5866 5866 5865 5865 5865 5865 5865 5865 5865 5866 5866 5866 5866 5866 5866 5867 5866 5866 5866 5867 5866 5866 5864 5863 5864 5866 5868 5869 5869 5870 5870 5871 5872 5872 5873 5873
5869 5868 5867 5867 5866 5866 5865 5865 5864 5864 5864 5864 5864 5863 5863 5864 5864 5864 5864 5865 5865 5865 5865 5865 5865 5865 5865 5865 5864 5863 5863 5863 5864 5866 5867 5868 5868 5868 5869 5870 5870 5871 5871
5867 5866 5866 5865 5865 5864 5864 5863 5863 5863 5862 5862 5862 5862 5862 5862 5862 5863 5863 5863 5863 5863 5863 5863 5863 5863 5863 5863 5862 5862 5862 5862 5863 5864 5865 5866 5866 5866 5867 5868 5868 5868 5869
5866 5865 5864 5864 5863 5863 5862 5862 5861 5861 5861 5861 5861 5860 5860 5860 5861 5861 5861 5860 5861 5861 5861 5861 5861 5861 5861 5861 5861 5861 5861 5861 5862 5862 5863 5863 5864 5864 5865 5865 5866 5866 5866
5866 5865 5864 5863 5862 5862 5861 5860 5860 5860 5859 5859 5859 5859 5859 5859 5859 5859 5859 5858 5858 5858 5859 5859 5859 5859 5859 5859 5858 5859 5859 5859 5859 5860 5861 5861 5861 5862 5862 5862 5863 5863 5864
5865 5864 5863 5862 5861 5861 5860 5859 5859 5858 5858 5857 5857 5857 5857 5857 5857 5857 5857 5856 5856 5856 5857 5857 5856 5856 5856 5856 5856 5856 5856 5856 5857 5857 5858 5858 5859 5859 5859 5860 5860 5861 5861
5864 5863 5862 5861 5860 5860 5859 5858 5858 5857 5857 5856 5856 5856 5855 5855 5855 5855 5855 5854 5854 5855 5855 5854 5854 5854 5854 5854 5854 5854 5854 5854 5854 5855 5855 5855 5856 5856 5856 5857 5857 5858 5858
5863 5862 5861 5860 5860 5859 5858 5857 5856 5856 5855 5855 5854 5854 5854 5854 5853 5852 5853 5853 5853 5853 5852 5852 5852 5851 5851 5851 5851 5851 5851 5851 5851 5852 5852 5853 5853 5853 5853 5854 5854 5855 5855
5863 5861 5860 5860 5859 5858 5857 5856 5855 5855 5854 5854 5853 5852 5852 5852 5851 5851 5851 5851 5850 5850 5850 5850 5849 5849 5849 5849 5848 5848 5848 5848 5849 5849 5849 5849 5850 5850 5850 5851 5851 5851 5852
5862 5861 5860 5859 5858 5857 5856 5855 5854 5854 5853 5852 5852 5851 5850 5850 5850 5849 5849 5848 5848 5848 5848 5847 5847 5847 5846 5846 5846 5846 5846 5846 5846 5846 5846 5846 5847 5847 5847 5848 5848 5848 5849
5862 5861 5859 5858 5857 5856 5855 5854 5853 5853 5852 5851 5850 5850 5849 5848 5848 5847 5847 5846 5846 5846 5845 5845 5845 5844 5844 5843 5843 5843 5843 5843 5843 5843 5843 5843 5843 5844 5844 5845 5845 5845 5845
5861 5860 5858 5857 5856 5855 5854 5853 5852 5852 5851 5850 5849 5848 5847 5847 5846 5846 5845 5845 5844 5844 5843 5843 5842 5841 5841 5841 5840 5840 5840 5840 5840 5840 5840 5840 5840 5841 5841 5841 5842 5842 5842
5859 5859 5857 5856 5855 5854 5853 5852 5851 5850 5850 5849 5848 5847 5846 5845 5845 5844 5843 5843 5842 5842 5841 5841 5840 5839 5839 5838 5838 5837 5837 5837 5836 5836 5836 5837 5837 5837 5838 5838 5838 5839 5839
5859 5858 5857 5856 5854 5853 5852 5851 5850 5849 5848 5847 5847 5846 5845 5844 5843 5842 5842 5841 5840 5840 5839 5839 5838 5837 5837 5836 5835 5835 5834 5834 5833 5833 5833 5834 5834 5834 5835 5835 5835 5835 5835
5858 5857 5856 5855 5853 5852 5851 5850 5849 5848 5847 5846 5845 5844 5843 5842 5841 5841 5840 5839 5838 5837 5837 5836 5835 5835 5834 5833 5833 5832 5832 5831 5831 5831 5831 5831 5831 5831 5831 5832 5832 5832 5832
5857 5856 5855 5853 5852 5851 5850 5849 5848 5847 5846 5844 5843 5842 5841 5840 5840 5839 5838 5837 5836 5835 5834 5834 5833 5832 5831 5830 5830 5829 5829 5828 5828 5828 5828 5828 5828 5828 5828 5828 5829 5829 5829
5856 5855 5854 5852 5851 5850 5849 5848 5847 5845 5844 5843 5842 5841 5840 5839 5838 5837 5836 5835 5834 5833 5832 5831 5830 5829 5828 5827 5826 5826 5826 5825 5825 5825 5825 5825 5825 5825 5825 5825 5825 5826 5826
5855 5854 5852 5851 5850 5849 5848 5846 5845 5844 5843 5841 5840 5839 5838 5837 5836 5835 5834 5832 5832 5830 5829 5829 5827 5826 5825 5824 5824 5823 5823 5822 5822 5822 5821 5821 5821 5822 5822 5822 5822 5822 5823
5853 5852 5851 5850 5849 5847 5846 5845 5843 5842 5841 5840 5838 5837 5836 5835 5834 5833 5831 5830 5829 5828 5827 5826 5825 5824 5822 5822 5821 5821 5820 5819 5819 5819 5818 5818 5818 5818 5818 5819 5819 5820 5820
5852 5851 5849 5848 5847 5845 5844 5843 5842 5840 5839 5838 5837 5835 5834 5833 5832 5831 5829 5828 5827 5825 5824 5823 5822 5821 5820 5819 5818 5818 5817 5817 5816 5816 5816 5816 5816 5815 5816 5816 5816 5816 5817
5850 5849 5848 5846 5845 5843 5842 5841 5840 5838 5837 5836 5835 5833 5832 5831 5829 5828 5827 5826 5824 5823 5822 5820 5819 5818 5817 5816 5816 5816 5815 5815 5814 5814 5813 5813 5813 5813 5813 5813 5813 5814 5814
5848 5847 5845 5844 5843 5841 5840 5839 5837 5836 5835 5834 5832 5831 5829 5828 5827 5826 5824 5823 5822 5821 5819 5818 5816 5815 5815 5814 5814 5813 5813 5813 5812 5811 5811 5811 5810 5810 5811 5811 5811 5810 5810
5846 5844 5843 5842 5841 5839 5838 5836 5835 5834 5833 5831 5830 5828 5827 5826 5824 5823 5822 5821 5820 5818 5817 5815 5814 5813 5812 5812 5811 5811 5811 5810 5810 5810 5809 5808 5808 5808 5808 5808 5807 5807 5807
5843 5842 5841 5840 5838 5837 5836 5834 5832 5831 5830 5828 5827 5826 5824 5823 5821 5820 5819 5818 5817 5815 5814 5813 5812 5811 5810 5810 5809 5809 5808 5808 5808 5807 5807 5806 5805 5805 5805 5805 5804 5804 5804